This demonstration page uses our WeatherBlox Daily Observations layout. Learn more.

Left ArrowRight Arrow

Hourly Observations for January 30, 2015

Temp ( °F °C ) Dew Point ( °F °C ) Humidity (%) Winds ( mph kmh ) Pressure ( in mb ) Visibility ( mi km ) Precip ( " mm )
12:15 am 00:15 Cloudy 32 0 23 -5 69 69 WNW 10 17 30.24 1024 10 16.0934 N/A
12:36 am 00:36 Cloudy 32 0 21 -6 64 64 NW 9 15 30.24 1024 10 16.0934 N/A
12:55 am 00:55 Cloudy 32 0 21 -6 64 64 NW 9 15 30.27 1025 10 16.0934 N/A
1:15 am 01:15 Cloudy 32 0 21 -6 64 64 NW 10 17 30.27 1025 10 16.0934 N/A
1:36 am 01:36 Cloudy 32 0 19 -7 60 60 NW 9 15 30.27 1025 10 16.0934 N/A
1:55 am 01:55 Cloudy 32 0 18 -8 55 55 NW 15 24 30.27 1025 10 16.0934 N/A
2:15 am 02:15 Mostly Cloudy 32 0 18 -8 55 55 NW 12 19 30.27 1025 10 16.0934 N/A
2:35 am 02:35 Partly Cloudy 32 0 16 -9 51 51 NW 12 19 30.27 1025 10 16.0934 N/A
2:55 am 02:55 Partly Cloudy 32 0 18 -8 55 55 NW 14 22 30.3 1026 10 16.0934 N/A
3:16 am 03:16 Partly Cloudy 32 0 18 -8 55 55 NW 13 20 30.3 1026 10 16.0934 N/A
3:35 am 03:35 Mostly Cloudy 32 0 16 -9 51 51 NW 16 26 30.3 1026 10 16.0934 N/A
3:55 am 03:55 Mostly Cloudy 32 0 18 -8 55 55 NNW 21 33 30.3 1026 10 16.0934 N/A
4:16 am 04:16 Mostly Cloudy 30 -1 19 -7 64 64 NNW 18 30 30.33 1027 10 16.0934 N/A
4:35 am 04:35 Mostly Cloudy 30 -1 19 -7 64 64 N 18 30 30.33 1027 10 16.0934 N/A
4:55 am 04:55 Mostly Cloudy 30 -1 16 -9 55 55 N 18 30 30.33 1027 10 16.0934 N/A
5:16 am 05:16 Mostly Cloudy 28 -2 16 -9 59 59 N 24 39 30.36 1028 5 8.0467 N/A
5:35 am 05:35 Cloudy 28 -2 14 -10 55 55 NNW 18 30 30.36 1028 10 16.0934 N/A
5:55 am 05:55 Partly Cloudy 28 -2 14 -10 55 55 NNW 20 31 30.36 1028 10 16.0934 N/A
6:16 am 06:16 Partly Cloudy 28 -2 14 -10 55 55 N 20 31 30.39 1029 10 16.0934 N/A
6:35 am 06:35 Partly Cloudy 28 -2 10 -12 47 47 N 17 28 30.39 1029 10 16.0934 N/A
6:55 am 06:55 Mostly Cloudy 27 -3 10 -12 50 50 N 20 31 30.45 1031 10 16.0934 N/A
7:16 am 07:16 Mostly Cloudy 27 -3 10 -12 50 50 N 20 31 30.45 1031 10 16.0934 N/A
7:35 am 07:35 Mostly Cloudy 27 -3 10 -12 50 50 N 14 22 30.45 1031 10 16.0934 N/A
7:56 am 07:56 Cloudy 27 -3 10 -12 50 50 N 13 20 30.48 1032 10 16.0934 N/A
8:15 am 08:15 Mostly Cloudy 27 -3 10 -12 50 50 N 13 20 30.48 1032 10 16.0934 N/A
8:35 am 08:35 Partly Cloudy 27 -3 10 -12 50 50 N 16 26 30.48 1032 10 16.0934 N/A
8:56 am 08:56 Sunny 27 -3 9 -13 46 46 NNW 16 26 30.48 1032 10 16.0934 N/A
9:15 am 09:15 Partly Cloudy 28 -2 10 -12 47 47 N 13 20 30.5 1033 10 16.0934 N/A
9:36 am 09:36 Partly Cloudy 28 -2 7 -14 40 40 N 16 26 30.5 1033 10 16.0934 N/A
9:55 am 09:55 Mostly Cloudy 28 -2 9 -13 43 43 N 17 28 30.5 1033 10 16.0934 N/A
10:15 am 10:15 Mostly Cloudy 28 -2 7 -14 40 40 N 23 37 30.5 1033 10 16.0934 N/A
10:35 am 10:35 Cloudy 28 -2 7 -14 40 40 N 17 28 30.53 1034 10 16.0934 N/A
10:55 am 10:55 Cloudy 28 -2 9 -13 43 43 NNW 16 26 30.53 1034 10 16.0934 N/A
11:16 am 11:16 Cloudy 28 -2 7 -14 40 40 N 17 28 30.56 1035 10 16.0934 N/A
11:35 am 11:35 Cloudy 28 -2 9 -13 43 43 N 13 20 30.56 1035 10 16.0934 N/A
11:55 am 11:55 Cloudy 28 -2 9 -13 43 43 N 10 17 30.56 1035 10 16.0934 N/A
12:16 pm 12:16 Cloudy 28 -2 9 -13 43 43 N 12 19 30.53 1034 10 16.0934 N/A
12:35 pm 12:35 Cloudy 28 -2 9 -13 43 43 N 13 20 30.53 1034 10 16.0934 N/A
12:55 pm 12:55 Cloudy 28 -2 7 -14 40 40 NNW 12 19 30.53 1034 10 16.0934 N/A
1:15 pm 13:15 Cloudy 32 0 5 -15 32 32 N 10 17 30.48 1032 10 16.0934 N/A
1:35 pm 13:35 Mostly Cloudy 30 -1 5 -15 34 34 NNW 9 15 30.48 1032 10 16.0934 N/A
1:56 pm 13:56 Partly Cloudy 30 -1 7 -14 37 37 N 10 17 30.48 1032 10 16.0934 N/A
2:15 pm 14:15 Partly Cloudy 32 0 5 -15 32 32 N 12 19 30.48 1032 10 16.0934 N/A
2:35 pm 14:35 Partly Cloudy 32 0 7 -14 34 34 N 10 17 30.48 1032 10 16.0934 N/A
2:56 pm 14:56 Partly Cloudy 32 0 7 -14 34 34 N 10 17 30.48 1032 10 16.0934 N/A
3:15 pm 15:15 Partly Cloudy 32 0 7 -14 34 34 N 10 17 30.48 1032 10 16.0934 N/A
3:36 pm 15:36 Partly Cloudy 32 0 5 -15 32 32 NNW 5 7 30.48 1032 10 16.0934 N/A
3:55 pm 15:55 Partly Cloudy 32 0 5 -15 32 32 WNW 9 15 30.48 1032 10 16.0934 N/A
4:15 pm 16:15 Partly Cloudy 30 -1 7 -14 37 37 NNW 6 9 30.48 1032 10 16.0934 N/A
4:36 pm 16:36 Sunny 30 -1 7 -14 37 37 NNW 9 15 30.48 1032 10 16.0934 N/A
4:55 pm 16:55 Sunny 30 -1 7 -14 37 37 NNW 8 13 30.48 1032 10 16.0934 N/A
5:15 pm 17:15 Partly Cloudy 30 -1 9 -13 40 40 N 9 15 30.48 1032 10 16.0934 N/A
5:36 pm 17:36 Sunny 28 -2 9 -13 43 43 N 6 9 30.5 1033 10 16.0934 N/A
5:55 pm 17:55 Sunny 27 -3 10 -12 50 50 N 5 7 30.5 1033 10 16.0934 N/A
6:15 pm 18:15 Clear 27 -3 10 -12 50 50 N 5 7 30.5 1033 10 16.0934 N/A
6:35 pm 18:35 Clear 27 -3 10 -12 50 50 NE 5 7 30.5 1033 10 16.0934 N/A
6:55 pm 18:55 Clear 25 -4 12 -11 59 59 NNE 3 6 30.5 1033 10 16.0934 N/A
7:16 pm 19:16 Clear 25 -4 10 -12 54 54 NNE 3 6 30.5 1033 10 16.0934 N/A
7:35 pm 19:35 Clear 25 -4 10 -12 54 54 Calm 30.5 1033 10 16.0934 N/A
7:55 pm 19:55 Clear 23 -5 14 -10 68 68 Calm 30.5 1033 10 16.0934 N/A
8:16 pm 20:16 Clear 23 -5 16 -9 74 74 Calm 30.5 1033 10 16.0934 N/A
8:35 pm 20:35 Clear 23 -5 21 -6 93 93 Calm 30.5 1033 10 16.0934 N/A
8:55 pm 20:55 Clear 23 -5 23 -5 100 100 Calm 30.5 1033 10 16.0934 N/A
9:16 pm 21:16 Clear 21 -6 19 -7 93 93 Calm 30.5 1033 10 16.0934 N/A
9:35 pm 21:35 Clear 21 -6 19 -7 93 93 Calm 30.5 1033 10 16.0934 N/A
9:55 pm 21:55 Clear 21 -6 21 -6 100 100 Calm 30.48 1032 10 16.0934 N/A
10:16 pm 22:16 Clear 21 -6 19 -7 93 93 Calm 30.48 1032 10 16.0934 N/A
10:35 pm 22:35 Clear 21 -6 19 -7 93 93 Calm 30.48 1032 10 16.0934 N/A
10:55 pm 22:55 Clear 21 -6 21 -6 100 100 Calm 30.48 1032 10 16.0934 N/A
11:16 pm 23:16 Clear 21 -6 21 -6 100 100 Calm 30.48 1032 10 16.0934 N/A
11:35 pm 23:35 Clear 19 -7 18 -8 93 93 Calm 30.48 1032 10 16.0934 N/A
11:55 pm 23:55 Clear 19 -7 16 -9 86 86 Calm 30.48 1032 10 16.0934 N/A

Powered by AerisWeather